x

9442396 - La Push, Wa (lapw1) Weather Station

1:36 - Sun 25th Jan 2015 All times are PST. -8 hours from GMT.

  • Wind
    8mph, 14mph gusts
  • Sea Temp 47°f
  • Air Temp 52°f
  • Sea Pressure 1022.1mb
  • 9442396 - La Push, Wa
  • 9442396 - La Push, Wa

More Historic Weather Station data

Upgrade to MSW Pro to gain access to the past 30 days of data for over 8000 Wavebouys and Weather Stations around the globe.

Join Pro

Comparision Forecast

View Surf forecast
   
dim. 01/25 1:36 8 14 mph 1022.1mb 47f 52f
1:30 7 13 mph 1022.4mb 47f 52f
1:24 7 11 mph 1022.4mb 47f 52f
1:18 8 13 mph 1022.1mb 47f 52f
1:12 7 10 mph 1022.3mb 47f 52f
1:06 6 9 mph 1022.5mb 47f 52f
1:00 7 9 mph 1022.5mb 47f 52f
12:36 7 10 mph 1023.2mb 47f 52f
12:30 7 13 mph 1022.9mb 47f 52f
12:24 8 13 mph 1022.7mb 47f 52f
12:18 9 11 mph 1022.8mb 47f 52f
12:12 8 14 mph 1022.7mb 47f 51f
12:06 9 14 mph 1022.9mb 47f 51f
12:00 10 15 mph 1022.6mb 47f 51f
sam. 01/24 11:36 10 15 mph 1022.8mb 47f 52f
11:30 9 15 mph 1022mb 47f 52f
11:24 9 13 mph 1022.8mb 47f 52f
11:18 9 13 mph 1022.9mb 47f 52f
11:12 8 16 mph 1023.3mb 47f 52f
11:06 10 15 mph 1023.1mb 47f 52f
11:00 13 20 mph 1022.6mb 47f 51f
10:36 8 17 mph 1023.7mb 47f 52f
10:30 10 18 mph 1022.9mb 47f 52f
10:24 8 22 mph 1022.1mb 47f 52f
10:18 11 17 mph 1021.9mb 47f 52f
10:12 10 17 mph 1021.9mb 47f 51f
10:06 11 16 mph 1023.1mb 47f 52f
10:00 10 17 mph 1022.6mb 47f 52f
9:36 11 17 mph 1022.3mb 47f 52f
9:30 11 15 mph 1022.3mb 47f 52f
9:24 7 14 mph 1022.5mb 47f 52f
9:18 8 11 mph 1022.7mb 47f 52f
9:12 8 13 mph 1022.8mb 47f 51f
9:06 8 14 mph 1022.8mb 46f 52f
9:00 9 15 mph 1022.9mb 46f 52f
8:36 10 14 mph 1022.8mb 46f 52f
8:30 11 18 mph 1022.9mb 46f 52f
8:24 8 15 mph 1022.3mb 46f 51f
8:18 10 13 mph 1022.8mb 46f 52f
8:12 11 15 mph 1023mb 46f 52f
8:06 10 13 mph 1022.8mb 46f 52f
8:00 6 13 mph 1022.4mb 46f 52f
7:36 11 18 mph 1022.4mb 47f 52f
7:30 8 15 mph 1022.7mb 47f 52f
7:24 11 17 mph 1022.5mb 47f 52f
7:18 10 16 mph 1022.9mb 47f 52f
7:12 11 18 mph 1023.6mb 47f 53f
7:06 10 15 mph 1023.2mb 47f 52f
7:00 9 16 mph 1021.9mb 47f 52f
6:36 11 18 mph 1022.9mb 47f 52f
6:30 13 21 mph 1023.5mb 47f 53f
6:24 13 18 mph 1023.3mb 47f 53f
6:18 13 20 mph 1023.1mb 47f 53f
6:12 10 18 mph 1022.9mb 47f 53f
6:06 10 17 mph 1023.1mb 47f 52f
6:00 13 20 mph 1022.9mb 47f 52f
5:36 10 17 mph 1023.5mb 47f 52f
5:30 9 22 mph 1023.5mb 47f 52f
5:24 13 20 mph 1023.4mb 47f 52f
5:18 13 18 mph 1023.5mb 47f 52f
5:12 10 22 mph 1023.3mb 47f 52f
5:06 11 21 mph 1023.3mb 47f 52f
5:00 13 18 mph 1023.2mb 47f 52f
4:36 14 23 mph 1023.1mb 47f 52f
4:30 9 18 mph 1023.1mb 47f 52f
4:24 10 20 mph 1023.1mb 47f 52f
4:18 14 20 mph 1023.1mb 47f 52f
4:12 16 24 mph 1023mb 47f 52f
4:06 13 22 mph 1023mb 47f 53f
4:00 15 21 mph 1023.2mb 47f 52f
3:36 10 15 mph 1023.7mb 47f 52f
3:30 9 17 mph 1023.6mb 47f 52f
3:24 11 17 mph 1023.4mb 47f 52f
3:18 13 20 mph 1023.3mb 47f 53f
3:12 9 17 mph 1023.4mb 47f 53f
3:06 10 20 mph 1023.6mb 47f 53f
3:00 14 20 mph 1023.6mb 47f 53f
2:36 9 18 mph 1023.4mb 47f 52f
2:30 14 18 mph 1023.3mb 47f 52f
2:24 13 23 mph 1023.4mb 47f 53f
2:18 10 23 mph 1023.3mb 47f 52f
2:12 13 21 mph 1023.2mb 47f 53f
2:06 14 20 mph 1023.2mb 47f 53f
2:00 13 23 mph 1023.5mb 47f 53f
1:36 13 20 mph 1023.6mb 47f 52f
1:30 13 23 mph 1023.9mb 47f 53f
1:24 15 22 mph 1023.8mb 47f 53f
1:18 11 21 mph 1023.8mb 47f 53f
1:12 13 21 mph 1023.8mb 47f 53f
1:06 13 18 mph 1023.8mb 47f 53f
1:00 11 17 mph 1023.9mb 47f 53f
12:36 16 24 mph 1024.2mb 47f 52f
12:30 13 20 mph 1024.2mb 47f 52f
12:24 11 23 mph 1024.3mb 47f 52f
12:18 11 22 mph 1024.3mb 47f 52f
12:12 15 23 mph 1024.3mb 47f 52f
12:06 15 25 mph 1024.4mb 47f 52f
12:00 15 24 mph 1024.3mb 47f 52f
11:36 15 23 mph 1024.4mb 47f 52f
11:30 14 21 mph 1024.4mb 47f 52f
11:24 15 20 mph 1024.6mb 47f 53f
11:18 10 20 mph 1024.5mb 47f 53f
11:12 13 21 mph 1024.4mb 47f 53f
11:06 14 22 mph 1024.5mb 47f 53f
11:00 16 22 mph 1024.6mb 47f 53f
10:36 11 20 mph 1024.7mb 47f 53f
10:30 14 24 mph 1024.7mb 47f 53f
10:24 11 21 mph 1024.7mb 47f 53f
10:18 13 22 mph 1024.7mb 47f 53f
10:12 15 21 mph 1024.7mb 47f 53f
10:06 13 21 mph 1024.7mb 47f 53f
10:00 11 16 mph 1024.7mb 46f 53f
9:36 15 21 mph 1024.4mb 46f 53f
9:30 13 18 mph 1024.1mb 46f 53f
9:24 14 24 mph 1024mb 46f 53f
9:18 13 22 mph 1024mb 46f 53f
9:12 13 21 mph 1024.1mb 46f 53f
9:06 11 20 mph 1024mb 46f 53f
9:00 14 21 mph 1024mb 46f 53f
8:36 10 20 mph 1024.3mb 46f 53f
8:30 17 23 mph 1024.3mb 46f 53f
8:24 11 22 mph 1024.4mb 46f 53f
8:18 10 21 mph 1024.3mb 46f 53f
8:12 14 18 mph 1024.2mb 46f 53f
8:06 11 18 mph 1024.3mb 46f 53f
8:00 14 18 mph 1024.6mb 46f 53f
7:36 9 13 mph 1024.2mb 46f 53f
7:30 9 15 mph 1024.3mb 47f 53f
7:24 11 17 mph 1024.4mb 47f 53f
7:18 14 17 mph 1024.3mb 47f 53f
7:12 11 18 mph 1024.3mb 47f 53f
7:06 13 21 mph 1024.2mb 47f 53f
7:00 10 16 mph 1024.1mb 47f 53f
6:36 11 17 mph 1024.1mb 46f 52f
6:30 11 18 mph 1024.3mb 47f 52f
6:24 11 16 mph 1024.5mb 47f 52f
6:18 11 17 mph 1024.6mb 46f 52f
6:12 11 15 mph 1024.5mb 47f 52f
6:06 7 14 mph 1024.4mb 47f 52f
6:00 7 17 mph 1024.2mb 46f 53f
5:36 8 14 mph 1024.6mb 47f 53f
5:30 6 11 mph 1024.4mb 47f 53f
5:24 9 13 mph 1024.4mb 47f 53f
5:18 8 13 mph 1024.5mb 47f 53f
5:12 6 11 mph 1024.6mb 47f 53f
5:06 9 14 mph 1024.6mb 47f 53f
5:00 8 16 mph 1024.6mb 47f 53f
4:36 7 9 mph 1024.8mb 47f 53f
4:30 7 9 mph 1024.8mb 47f 53f
4:24 3 11 mph 1024.7mb 47f 53f
4:18 6 9 mph 1024.6mb 47f 53f
4:12 5 13 mph 1024.7mb 47f 53f
4:06 8 13 mph 1024.8mb 47f 53f
4:00 6 8 mph 1024.9mb 47f 53f
3:36 6 13 mph 1025.1mb 47f 53f
3:30 6 10 mph 1025.1mb 47f 52f
3:24 7 11 mph 1025mb 47f 52f
3:18 5 8 mph 1025.1mb 47f 52f
3:12 3 6 mph 1025.2mb 47f 52f
3:06 3 6 mph 1025.3mb 47f 52f
3:00 3 6 mph 1025.4mb 47f 52f
1:36 6 7 mph 1025.4mb 47f 52f
1:30 3 6 mph 1025.5mb 47f 52f
1:24 6 8 mph 1025.4mb 47f 52f
1:18 6 8 mph 1025.4mb 47f 52f
1:12 6 9 mph 1025.4mb 47f 52f
1:06 6 7 mph 1025.2mb 46f 52f
1:00 6 9 mph 1025.2mb 46f 52f
12:54 6 8 mph 1025mb 46f 53f
12:48 6 9 mph 1025mb 47f 53f
12:36 6 7 mph 1024.8mb 47f 53f
12:30 5 6 mph 1024.8mb 46f 53f
12:24 3 8 mph 1024.5mb 46f 53f
12:18 5 8 mph 1024.3mb 46f 53f
12:12 7 10 mph 1024.4mb 47f 53f
12:06 6 13 mph 1024.7mb 47f 53f
12:00 8 13 mph 1024.7mb 47f 53f
ven. 01/23 11:54 8 10 mph 1024.7mb 47f 53f
11:48 6 10 mph 1024.7mb 46f 52f
11:36 7 13 mph 1024.8mb 46f 53f
11:30 7 15 mph 1024.7mb 46f 53f
11:24 8 13 mph 1024.6mb 46f 53f
11:18 9 13 mph 1024.4mb 46f 53f
11:12 7 13 mph 1024.6mb 46f 53f
11:06 7 8 mph 1024.6mb 46f 53f
11:00 6 8 mph 1024.6mb 46f 53f
10:54 6 11 mph 1024.4mb 46f 53f
10:48 8 13 mph 1024.5mb 46f 53f
10:36 10 17 mph - 46f 53f
10:30 8 14 mph - 46f 53f
10:24 10 14 mph - 46f 53f
10:18 8 14 mph - 46f 53f
10:12 7 14 mph - 46f 53f
10:06 8 14 mph - 46f 53f
10:00 7 10 mph - 46f 53f
9:54 7 14 mph - 46f 53f
9:48 8 13 mph - 46f 53f
9:36 10 15 mph 1024mb 48f 53f
9:30 7 14 mph 1023.9mb 48f 53f
9:24 8 14 mph 1023.9mb 48f 53f
9:18 9 15 mph 1023.8mb 48f 53f
9:12 9 15 mph 1023.7mb 48f 53f
9:06 10 14 mph 1023.8mb 48f 53f
9:00 9 14 mph 1023.7mb 48f 53f
8:54 10 17 mph 1023.8mb 48f 53f
8:48 13 18 mph 1023.8mb 48f 53f
8:36 11 17 mph 1023.6mb 48f 53f
8:30 11 17 mph 1023.5mb 48f 53f
8:24 14 17 mph 1023.5mb 48f 53f
8:18 13 17 mph 1023.5mb 48f 53f
8:12 9 16 mph 1023.5mb 48f 53f
8:06 13 22 mph 1023.5mb 48f 53f
8:00 13 17 mph 1023.4mb 48f 53f
7:54 13 21 mph 1023.4mb 48f 52f
7:48 10 17 mph 1023.5mb 48f 52f
7:36 9 16 mph 1023.5mb 48f -
7:30 9 16 mph 1023.5mb 48f -
7:24 11 16 mph 1023.4mb 48f -
7:18 9 14 mph 1023.5mb 48f -
7:12 9 17 mph 1023.6mb 48f -
7:06 10 18 mph 1023.6mb 48f -
7:00 9 21 mph 1023.6mb 48f -
6:54 8 21 mph 1023.5mb 48f -
6:48 9 17 mph 1023.6mb 48f -
6:36 10 17 mph 1023.6mb 48f 53f
6:30 10 23 mph 1023.6mb 48f 53f
6:24 15 22 mph 1023.6mb 48f 53f
6:18 13 24 mph 1023.6mb 48f 53f
6:12 13 22 mph 1023.5mb 48f 53f
6:06 13 20 mph 1023.4mb 48f 53f
6:00 13 21 mph 1023.3mb 48f 53f
5:54 13 22 mph 1023.3mb 48f 52f
5:48 14 24 mph 1023.4mb 48f 53f
5:36 16 26 mph 1023.3mb 48f 52f
5:30 14 22 mph 1023.4mb 48f 52f
5:24 11 22 mph 1023.2mb 48f 52f
5:18 11 20 mph 1023.2mb 48f 52f
5:12 14 21 mph 1023.3mb 48f 52f
5:06 10 17 mph 1023.5mb 48f 53f
5:00 14 23 mph 1023.5mb 48f 53f
4:54 15 22 mph 1023.4mb 48f 53f
4:48 11 22 mph 1023.4mb 48f 53f
4:36 14 20 mph 1023.2mb 48f 52f
4:30 10 20 mph 1023.3mb 48f 53f
4:24 16 29 mph 1023.1mb 48f 52f
4:18 14 24 mph 1023.3mb 48f 52f
4:12 15 21 mph 1023.3mb 48f 52f
4:06 16 23 mph 1023.3mb 48f 52f
4:00 15 25 mph 1023.3mb 48f 52f
3:54 13 25 mph 1023.4mb 49f 52f
3:48 14 24 mph 1023.6mb 49f 52f
3:36 18 28 mph 1023.7mb 49f 52f
3:30 14 24 mph 1023.7mb 49f 53f
3:24 14 22 mph 1023.6mb 49f 52f
3:18 14 24 mph 1023.6mb 49f 53f
3:12 16 26 mph 1023.3mb 49f 53f
3:06 15 23 mph 1023.2mb 49f 53f
3:00 16 22 mph 1023.4mb 49f 52f
2:54 14 21 mph 1023.5mb 48f 52f
2:48 15 23 mph 1023.5mb 48f 52f
2:36 14 23 mph 1023.4mb 48f 52f
2:30 14 22 mph 1023.5mb 48f 52f
2:24 14 23 mph 1023.6mb 48f 52f
2:18 11 22 mph 1023.6mb 48f 52f
2:12 11 20 mph 1023.8mb 48f 52f
2:06 10 21 mph 1023.9mb 48f 52f
2:00 10 21 mph 1024mb 48f 52f
1:54 14 23 mph 1023.9mb 48f 52f
1:48 13 22 mph 1023.8mb 48f 52f
1:36 15 25 mph 1023.7mb 48f 53f
1:30 11 23 mph 1023.8mb 48f 53f
1:24 14 23 mph 1023.6mb 48f 52f
1:18 14 24 mph 1023.7mb 48f 53f
1:12 18 25 mph 1023.9mb 48f 52f
1:06 15 23 mph 1024mb 48f 52f
1:00 11 20 mph 1024mb 48f 52f
12:54 14 22 mph 1024mb 48f 52f
12:48 14 26 mph 1023.8mb 48f 52f
12:36 15 23 mph 1024.1mb 48f 52f
12:30 17 30 mph 1023.9mb 47f 52f
12:24 18 29 mph 1024.5mb 47f 52f
12:18 20 30 mph 1024.4mb 47f 52f
12:12 15 29 mph 1024.2mb 47f 52f
12:06 22 34 mph 1024.3mb 47f 52f
12:00 18 28 mph 1024.4mb 47f 52f
11:54 16 28 mph 1024.5mb 47f 52f
11:48 22 34 mph 1024.3mb 47f 52f
11:36 18 30 mph 1024.3mb 46f 52f
11:30 18 32 mph 1024.3mb 46f 51f
11:24 14 29 mph 1024.3mb 46f 51f
11:18 16 26 mph 1024.4mb 45f 51f
11:12 16 32 mph 1024.3mb 45f 52f
11:06 18 29 mph 1024.4mb 45f 52f
11:00 21 31 mph 1024.4mb 45f 51f
10:54 17 30 mph 1024.5mb 45f 52f
10:48 16 31 mph 1024.5mb 45f 52f
10:36 18 36 mph 1024.4mb 45f 52f
10:30 23 33 mph 1024.4mb 45f 52f
10:24 18 34 mph 1024.4mb 45f 52f
10:18 17 32 mph 1024.5mb 45f 52f
10:12 18 31 mph 1024.3mb 45f 51f
10:06 21 34 mph 1024.4mb 45f 52f
10:00 20 36 mph 1024.5mb 44f 52f
9:54 17 31 mph 1024.4mb 44f 52f
9:48 16 28 mph 1024.5mb 44f 52f
9:36 17 30 mph 1024.5mb 44f 52f
9:30 14 28 mph 1024.5mb 44f 52f
9:24 18 34 mph 1024.5mb 44f 52f
9:18 20 29 mph 1024.5mb 44f 52f
9:12 18 28 mph 1024.4mb 44f 51f
9:06 16 31 mph 1024.3mb 44f 51f
9:00 18 36 mph 1024.2mb 44f 51f
8:54 17 31 mph 1024.1mb 44f 51f
8:48 15 26 mph 1024.1mb 44f 51f
8:36 15 29 mph 1024.1mb 44f 51f
8:30 20 31 mph 1024.1mb 44f 51f
8:24 16 37 mph 1024mb 44f 51f
8:18 21 33 mph 1023.9mb 44f 51f
8:12 18 33 mph 1023.9mb 44f 51f
8:06 20 32 mph 1024mb 44f 51f
8:00 18 31 mph 1023.9mb 44f 51f
7:54 17 28 mph 1023.9mb 44f 51f
7:48 16 29 mph 1024.1mb 44f 51f
7:36 18 28 mph 1024.1mb 44f 51f
7:30 14 26 mph 1024.1mb 44f 51f
7:24 15 22 mph 1024.2mb 45f 51f
7:18 15 29 mph 1024.2mb 44f 51f
7:12 14 23 mph 1024.4mb 44f 51f
7:06 13 29 mph 1024.5mb 44f 51f
7:00 15 24 mph 1024.5mb 44f 51f
6:54 15 28 mph 1024.6mb 44f 51f
6:48 15 23 mph 1024.6mb 44f 51f
6:36 13 22 mph 1024.7mb 45f 51f
6:30 13 21 mph 1024.7mb 45f 51f
6:24 14 20 mph 1024.9mb 45f 51f
6:18 11 22 mph 1024.9mb 45f 51f
6:12 11 25 mph 1025mb 45f 51f
6:06 14 23 mph 1024.9mb 45f 51f
6:00 8 22 mph 1024.9mb 45f 51f
5:54 13 21 mph 1024.9mb 45f 51f
5:48 14 22 mph 1025mb 45f 51f
5:36 8 25 mph 1025.1mb 45f 51f
5:30 13 24 mph 1025.2mb 45f 51f
5:24 15 24 mph 1025.2mb 45f 51f
5:18 14 25 mph 1025.3mb 45f 51f
5:12 11 21 mph 1025.3mb 45f 51f
5:06 9 23 mph 1025.3mb 46f 51f
5:00 11 22 mph 1025.3mb 46f 51f
4:54 15 23 mph 1025.4mb 46f 51f
4:48 14 29 mph 1025.4mb 46f 51f
4:36 13 18 mph 1025.4mb 47f 51f
4:30 14 22 mph 1025.4mb 47f 51f
4:24 9 18 mph 1025.4mb 47f 51f
4:18 9 20 mph 1025.4mb 47f 51f
4:12 9 24 mph 1025.4mb 47f 51f
4:06 11 22 mph 1025.5mb 47f 51f
4:00 9 21 mph 1025.6mb 47f 50f
3:54 11 21 mph 1025.6mb 47f 50f
3:48 11 20 mph 1025.7mb 47f 50f
3:36 10 23 mph 1025.7mb 47f 51f
3:30 11 20 mph 1025.8mb 47f 51f
3:24 13 21 mph 1025.8mb 47f 51f
3:18 11 18 mph 1025.9mb 47f 51f
3:12 11 20 mph 1025.7mb 48f 51f
3:06 14 24 mph 1025.8mb 48f 51f
3:00 11 23 mph 1025.9mb 48f 51f
2:54 9 24 mph 1025.8mb 48f 51f
2:48 9 20 mph 1025.7mb 48f 51f
2:36 13 23 mph 1025.9mb 48f 51f
2:30 9 21 mph 1025.8mb 48f 51f
2:24 9 22 mph 1025.3mb 48f 51f
2:18 10 16 mph 1025.1mb 48f 51f
2:12 11 17 mph 1025mb 48f 51f
2:06 10 16 mph 1025.1mb 48f 51f
2:00 10 17 mph 1024.8mb 48f 51f
1:54 9 18 mph 1025.3mb 48f 51f
1:48 8 15 mph 1025.4mb 48f 51f
1:36 11 20 mph 1025.7mb 48f 51f
1:30 14 31 mph 1025.8mb 48f 51f
1:24 13 20 mph 1025.8mb 47f 51f
1:18 9 20 mph 1025.8mb 47f 51f
1:12 10 17 mph 1025.9mb 47f 51f
1:06 10 18 mph 1025.9mb 47f 51f
1:00 10 21 mph 1026mb 47f 51f
12:54 13 16 mph 1026.1mb 47f 51f
12:48 11 18 mph 1026.5mb 47f 51f
12:36 14 26 mph 1026.7mb 47f 51f
12:30 9 21 mph 1026.7mb 47f 51f
12:24 8 16 mph 1026.8mb 47f 51f
12:18 9 17 mph 1026.8mb 47f 51f
12:12 8 13 mph 1026.7mb 47f 51f
12:06 10 23 mph 1026.6mb 46f 51f
12:00 10 21 mph 1026.7mb 46f 51f
jeu. 01/22 11:54 10 22 mph 1026.7mb 46f 51f
11:48 9 16 mph 1026.7mb 45f 51f
11:36 10 15 mph 1026.6mb 44f 50f
11:30 10 16 mph 1026.5mb 44f 50f
11:24 10 15 mph 1026.5mb 44f 50f
11:18 9 20 mph 1026.4mb 44f 50f
11:12 13 18 mph 1026.4mb 44f 50f
11:06 10 18 mph 1026.3mb 44f 50f
11:00 13 20 mph 1026.3mb 44f 50f
10:54 9 21 mph 1026.3mb 44f 50f
10:48 10 23 mph 1026.1mb 44f 50f
10:36 11 18 mph 1026.1mb 44f 50f
10:30 11 21 mph 1026mb 44f 50f
10:24 8 15 mph 1026mb 44f 50f
10:18 15 22 mph 1025.9mb 43f 50f
10:12 14 21 mph 1025.8mb 43f 50f
10:06 11 18 mph 1025.9mb 43f 50f
10:00 13 20 mph 1026mb 43f 50f
9:54 13 20 mph 1026mb 43f 50f
9:48 11 20 mph 1026.2mb 43f 50f
9:36 13 18 mph 1025.9mb 43f 50f
9:30 9 18 mph 1025.7mb 43f 50f
9:24 10 16 mph 1025.7mb 43f 50f
9:18 7 14 mph 1025.7mb 43f 50f
9:12 13 20 mph 1025.7mb 43f 50f
9:06 10 17 mph 1025.9mb 44f 50f
9:00 11 20 mph 1025.9mb 43f 50f
8:54 13 17 mph 1026mb 43f 50f
8:48 11 18 mph 1025.9mb 43f 50f
8:36 13 21 mph 1025.8mb 43f 50f
8:30 9 15 mph 1025.6mb 43f 50f
8:24 9 18 mph 1025.5mb 43f 50f
8:18 14 20 mph 1025.6mb 43f 50f
8:12 14 24 mph 1025.7mb 43f 50f
8:06 10 20 mph 1025.7mb 43f 50f
8:00 14 21 mph 1025.8mb 43f 50f
7:54 10 15 mph 1025.8mb 43f 49f
7:48 10 20 mph 1025.8mb 43f 49f
7:36 13 23 mph 1025.6mb 43f 49f
7:30 16 23 mph 1025.5mb 43f 49f
7:24 15 22 mph 1025.2mb 43f 49f
7:18 15 23 mph 1025.1mb 43f 49f
7:12 14 21 mph 1024.8mb 43f 49f
7:06 10 24 mph 1025mb 43f 49f
7:00 14 22 mph 1025.1mb 43f 49f
6:54 14 22 mph 1025mb 43f 49f
6:48 16 23 mph 1025mb 43f 49f
6:36 14 21 mph 1024.9mb 43f 49f
6:30 14 17 mph 1024.8mb 43f 50f
6:24 14 21 mph 1024.9mb 43f 50f
6:18 10 20 mph 1024.9mb 43f 50f
6:12 13 23 mph 1024.9mb 43f 50f
6:06 11 18 mph 1025mb 43f 50f
6:00 10 18 mph 1024.9mb 43f 50f
5:54 11 16 mph 1024.8mb 43f 50f
5:48 10 15 mph 1025.1mb 44f 50f
5:36 8 17 mph 1024.9mb - 50f
5:30 13 17 mph 1024.8mb - 50f
5:24 11 17 mph 1024.5mb - 50f
5:18 7 15 mph 1024.6mb - 50f
5:12 7 17 mph 1024.7mb - 50f
5:06 8 14 mph 1024.5mb - 50f
5:00 10 15 mph 1024.4mb - 50f
4:54 8 18 mph 1024.4mb - 50f
4:48 11 17 mph 1024.6mb - 50f
4:36 10 16 mph 1024.7mb 44f 49f
4:30 7 16 mph 1024.7mb 44f 49f
4:24 8 16 mph 1024.7mb 44f 49f
4:18 13 17 mph 1024.7mb 44f 49f
4:12 9 16 mph 1024.6mb 44f 49f
4:06 10 17 mph 1024.8mb 44f 49f
4:00 9 16 mph 1025mb 45f 49f
3:54 10 17 mph 1025.1mb 45f 49f
3:48 11 17 mph 1025mb 45f 49f
3:36 9 15 mph 1025mb 46f 49f
3:30 9 16 mph 1025.1mb 46f 49f
3:24 11 18 mph 1025.3mb 47f 49f
3:18 8 11 mph 1025.3mb 47f 49f
3:12 9 18 mph 1025.4mb 47f 49f
3:06 9 16 mph 1025.3mb 47f 49f
3:00 10 15 mph 1025.3mb 47f 49f
2:54 8 15 mph 1025.1mb 47f 49f
2:48 9 14 mph 1025.1mb 47f 49f
2:36 11 18 mph 1024.9mb 48f 49f
2:30 11 18 mph 1024.9mb 48f 49f
2:24 7 14 mph 1025mb 48f 49f
2:18 11 16 mph 1024.9mb 48f 49f
2:12 7 14 mph 1025mb 48f 49f
2:06 5 8 mph 1025mb 48f 49f
2:00 7 13 mph 1024.9mb 48f 49f
1:54 8 15 mph 1025.1mb 48f 49f
1:48 5 7 mph 1025mb 48f 49f
1:36 5 9 mph 1025mb 48f 49f
1:30 6 10 mph 1024.9mb 48f 49f
1:24 6 13 mph 1025mb 48f 49f
1:18 6 11 mph 1025.1mb 48f 49f
1:12 2 8 mph 1025mb 48f 49f
1:06 6 9 mph 1024.8mb 48f 49f
1:00 5 7 mph 1025mb 48f 49f
12:54 5 7 mph 1025.1mb 48f 49f
12:48 8 11 mph 1025mb 48f 49f
12:36 5 8 mph 1024.9mb 48f 49f
12:30 3 9 mph 1025mb 48f 49f
12:24 2 6 mph 1024.9mb 48f 49f
12:18 5 8 mph 1024.8mb 48f 49f
12:12 6 8 mph 1024.7mb 48f 49f
12:06 7 9 mph 1024.6mb 48f 49f
12:00 5 9 mph 1024.6mb 48f 48f
11:54 6 7 mph 1024.7mb 48f 48f
11:48 5 8 mph 1024.6mb 48f 49f
11:36 3 9 mph 1024.9mb 48f 49f
11:30 5 8 mph 1024.9mb 47f 48f
11:24 3 7 mph 1024.9mb 47f 48f
11:18 2 6 mph 1025mb 47f 48f
11:12 5 9 mph 1025mb 47f 48f
11:06 6 9 mph 1025.2mb 47f 47f
11:00 5 9 mph 1025.3mb 47f 47f
10:54 6 13 mph 1025.2mb 47f 47f
10:48 6 11 mph 1025.1mb 47f 47f
10:36 5 14 mph 1025.2mb 47f 47f
10:30 8 14 mph 1025.1mb 46f 47f
10:24 6 9 mph 1025mb 46f 47f
10:18 3 7 mph 1025mb 45f 47f
10:12 6 13 mph 1024.8mb 45f 47f
10:06 3 8 mph 1024.7mb 44f 46f
10:00 5 9 mph 1024.6mb 43f 46f
9:54 5 10 mph 1024.5mb 42f 46f
9:48 5 7 mph 1024.6mb 42f 46f
9:36 6 9 mph 1024.4mb 42f 46f
9:30 6 9 mph 1024.4mb 42f 46f
9:24 7 10 mph 1024.4mb 42f 46f
9:18 5 9 mph 1024.4mb 42f 46f
9:12 6 9 mph 1024.4mb 42f 46f
9:06 8 11 mph 1024.3mb 42f 46f
9:00 5 9 mph 1024.3mb 42f 46f
8:54 5 9 mph 1024.2mb 42f 46f
8:48 6 13 mph 1024mb 42f 46f
8:36 5 14 mph 1023.9mb 42f 46f
8:30 8 16 mph 1023.8mb 42f 46f
8:24 5 7 mph 1023.7mb 42f 46f
8:18 5 9 mph 1023.6mb 42f 46f
8:12 3 13 mph 1023.6mb 42f 46f
8:06 5 7 mph 1023.4mb 42f 46f
8:00 5 8 mph 1023.4mb 42f 46f
7:54 6 9 mph 1023.3mb 42f 45f
7:48 3 7 mph 1023.2mb 42f 45f
7:36 5 8 mph 1023mb 42f 45f
7:30 5 10 mph 1022.9mb 42f 45f
7:24 5 9 mph 1022.9mb 42f 45f
7:18 6 10 mph 1022.8mb 42f 45f
7:12 5 7 mph 1022.8mb 42f 45f
7:06 5 7 mph 1022.8mb 42f 44f
7:00 3 6 mph 1022.8mb 42f 44f
6:54 3 6 mph 1022.8mb 42f 44f
6:48 3 9 mph 1022.8mb 42f 44f
6:36 5 8 mph 1022.8mb 42f 44f
6:30 6 9 mph 1022.8mb 42f 44f
6:24 3 6 mph 1022.9mb 42f 44f
6:18 5 8 mph 1023mb 42f 44f
6:12 3 7 mph 1023.1mb 42f 44f
6:06 5 7 mph 1023.1mb 42f 44f
6:00 5 8 mph 1023mb 42f 44f
5:54 3 7 mph 1023.1mb 42f 45f
5:48 6 8 mph 1023.2mb 42f 45f
5:36 5 9 mph 1023.3mb 42f 45f
5:30 2 7 mph 1023.4mb 43f 45f
5:24 6 8 mph 1023.3mb 43f 45f
5:18 5 9 mph 1023.3mb 43f 44f
5:12 3 8 mph 1023.3mb 43f 44f
5:06 3 7 mph 1023.3mb 43f 44f
5:00 6 7 mph 1023.2mb 44f 44f
4:54 3 7 mph 1023.3mb 44f 44f
4:48 5 10 mph 1023.2mb 44f 44f
4:36 8 9 mph 1023.2mb 44f 44f
4:30 5 8 mph 1023.2mb 44f 44f
4:24 6 10 mph 1023.2mb 44f 44f
4:18 7 9 mph 1023.2mb 45f 44f
4:12 5 8 mph 1023.2mb 45f 44f
4:06 6 8 mph 1023.2mb 46f 44f
4:00 5 8 mph 1023.2mb 46f 44f
3:54 6 7 mph 1023.3mb 47f 44f
3:48 5 6 mph 1023.2mb 47f 44f
3:36 3 6 mph 1023.3mb 47f 44f
3:30 3 7 mph 1023.2mb 47f 44f
3:24 3 7 mph 1023.2mb 47f 44f
3:18 3 6 mph 1023.2mb 47f 44f
3:12 3 6 mph 1023.2mb 47f 44f
3:06 3 5 mph 1023.2mb 47f 44f
3:00 2 5 mph 1023.2mb 47f 44f
2:54 3 5 mph 1023.1mb 47f 44f
2:48 3 5 mph 1023.1mb 48f 44f
2:36 2 3 mph 1023.2mb 48f 44f
2:30 2 5 mph 1023.2mb 47f 44f
2:24 2 5 mph 1023.1mb 48f 44f
2:18 3 7 mph 1023.1mb 48f 44f
2:12 5 7 mph 1023.1mb 48f 44f
2:06 5 6 mph 1023.1mb 48f 44f
2:00 5 6 mph 1023.1mb 48f 44f
1:54 3 6 mph 1023.1mb 48f 44f
1:48 3 6 mph 1023.1mb 48f 44f
1:36 3 6 mph 1023mb 48f 44f
1:30 5 7 mph 1022.9mb 48f 44f
1:24 5 6 mph 1022.9mb 48f 44f
1:18 5 6 mph 1022.9mb 48f 44f
1:12 3 7 mph 1022.9mb 48f 44f
1:06 5 6 mph 1022.9mb 48f 44f
1:00 3 5 mph 1023mb 48f 44f
12:54 5 6 mph 1023mb 47f 44f
12:48 5 7 mph 1023mb 47f 44f
12:36 3 6 mph 1022.9mb 47f 44f
12:30 3 6 mph 1022.8mb 47f 44f
12:24 3 6 mph 1022.8mb 47f 44f
12:18 5 6 mph 1022.8mb 47f 44f
12:12 3 6 mph 1022.9mb 47f 44f
12:06 3 7 mph 1022.8mb 47f 44f
12:00 3 6 mph 1022.8mb 47f 44f
mer. 01/21 11:54 5 8 mph 1022.8mb 47f 44f
11:48 5 7 mph 1022.8mb 47f 44f
11:36 5 7 mph 1023mb 46f 44f
11:30 5 7 mph 1022.9mb 46f 44f
11:24 5 7 mph 1023mb 46f 44f
11:18 5 7 mph 1023mb 45f 44f
11:12 6 7 mph 1023mb 44f 44f
11:06 6 7 mph 1022.9mb 43f 45f
11:00 6 7 mph 1022.9mb 42f 45f
10:54 6 7 mph 1023mb 42f 45f
10:48 6 9 mph 1023mb 42f 46f
10:36 3 11 mph 1023.1mb 42f 46f
10:30 6 9 mph 1023.1mb 42f 46f
10:24 5 8 mph 1023.2mb 42f 46f
10:18 6 10 mph 1023.1mb 42f 45f
10:12 3 8 mph 1023mb 42f 44f
10:06 6 8 mph 1022.8mb 41f 44f
10:00 6 9 mph 1022.7mb 41f 44f
9:54 6 7 mph 1022.7mb 41f 44f
9:48 6 7 mph 1022.6mb 41f 44f
9:36 6 7 mph 1022.5mb 41f 44f
9:30 6 7 mph 1022.5mb 41f 44f
9:24 5 6 mph 1022.6mb 41f 44f
9:18 5 7 mph 1022.6mb 41f 44f
9:12 6 7 mph 1022.5mb 41f 44f
9:06 6 7 mph 1022.5mb 42f 44f
9:00 5 7 mph 1022.5mb 42f 44f
8:54 6
mph
1022.5mb 42f 44f
8:48 6 7 mph 1022.5mb 42f 44f
8:36 6 7 mph 1022.5mb 41f 44f
8:30 6 7 mph 1022.5mb 41f 44f
8:24 6 7 mph 1022.5mb 42f 44f
8:18 6 7 mph 1022.6mb 42f 44f
8:12 6 7 mph 1022.6mb 41f 44f
8:06 5 6 mph 1022.7mb 42f 44f
8:00 5 7 mph 1022.7mb 42f 44f
7:54 6 7 mph 1022.7mb 42f 44f
7:48 6 7 mph 1022.7mb 42f 45f
7:36 6 7 mph 1022.8mb 42f 45f
7:30 6 7 mph 1022.8mb 42f 45f
7:24 6 7 mph 1022.8mb 42f 45f
7:18 6 7 mph 1022.8mb 42f 45f
7:12 6 7 mph 1022.8mb 42f 45f
7:06 6 7 mph 1022.8mb 42f 46f
7:00 7
mph
1022.8mb 42f 46f
6:54 5 7 mph 1022.9mb 42f 46f
6:48 5 6 mph 1022.9mb 42f 47f
6:36 3 6 mph 1022.9mb 42f 47f
6:30 3 6 mph 1022.8mb 42f 47f
6:24 3 6 mph 1022.9mb 42f 48f
6:18 5 7 mph 1022.8mb 42f 48f
6:12 3 6 mph 1022.8mb 42f 48f
6:06 5 6 mph 1022.8mb 41f 49f
6:00 5 8 mph 1022.7mb 42f 49f
5:54 6 8 mph 1022.7mb 41f 48f
5:48 2 7 mph 1022.8mb 41f 48f
5:36 2 7 mph 1022.5mb 42f 48f
5:30 3 6 mph 1022.4mb 41f 48f
5:24 3 7 mph 1022.4mb 41f 48f
5:18 5 7 mph 1022.4mb 42f 48f
5:12 2 5 mph 1022.4mb 41f 48f
5:06 3 5 mph 1022.4mb 42f 48f
5:00 3 6 mph 1022.5mb 42f 48f
4:54 2 5 mph 1022.5mb 42f 48f
4:48 2 5 mph 1022.5mb 42f 48f
4:36 2 5 mph 1022.6mb 42f 49f
4:30 2 5 mph 1022.7mb 42f 49f
4:24 1 3 mph 1022.7mb 42f 49f
4:18 2 5 mph 1022.8mb 42f 49f
4:12 2 5 mph 1022.7mb 42f 49f
4:06 2 5 mph 1022.7mb 42f 49f
4:00 2 3 mph 1022.7mb 42f 49f
3:54 2 3 mph 1022.6mb 43f 49f
3:48 2 6 mph 1022.7mb 43f 49f
3:36 3 5 mph 1022.7mb 43f 49f
3:30 1 3 mph 1022.6mb 43f 49f
3:24 3 6 mph 1022.6mb 43f 49f
3:18 3 6 mph 1022.5mb 44f 49f
3:12 3 6 mph 1022.5mb 45f 49f
3:06 3 8 mph 1022.5mb 45f 49f
3:00 5 8 mph 1022.4mb 46f 49f
2:54 5 10 mph 1022.5mb 46f 49f
2:48 5 8 mph 1022.4mb 47f 49f
2:36 5 9 mph 1022.5mb 48f 49f
2:30 5 8 mph 1022.5mb 48f 49f
2:24 5 8 mph 1022.5mb 48f 49f
2:18 6 7 mph 1022.5mb 48f 50f
2:12 3 6 mph 1022.6mb 48f 49f
2:06 2 7 mph 1022.7mb 48f 49f
2:00 2 6 mph 1022.8mb 48f 48f
1:54 5 7 mph 1022.9mb 48f 48f
1:48 5 7 mph 1023mb 48f 48f
1:36 5 6 mph 1023.1mb 48f 47f
1:30 2
mph
1023.2mb 48f 47f
1:24 2 3 mph 1023.2mb 48f 47f
1:18 2 3 mph 1023.2mb 48f 47f
1:12 2 3 mph 1023.2mb 48f 48f
1:06 2 6 mph 1023.2mb 49f 47f
1:00 3 6 mph 1023.2mb 49f 47f
12:54 5 6 mph 1023.2mb 49f 47f
12:48 5 7 mph 1023.4mb 49f 46f
12:36 6 7 mph 1023.5mb 49f 46f
12:30 5 8 mph 1023.6mb 49f 46f
12:24 3 7 mph 1023.6mb 49f 46f
12:18 2 5 mph 1023.6mb 49f 45f
12:12 3 5 mph 1023.6mb 49f 44f
12:06 3 6 mph 1023.8mb 48f 44f
12:00 1 2 mph 1023.8mb 49f 43f
11:54 2 5 mph 1023.9mb 48f 43f
11:48 3 6 mph 1023.9mb 49f 43f
11:36 2 9 mph 1024mb 48f 42f
11:30 6 8 mph 1024mb 48f 42f
11:24 6 8 mph 1024.1mb 48f 42f
11:18 5 8 mph 1024.2mb 48f 41f
11:12 6 8 mph 1024.3mb 48f 41f
11:06 6 8 mph 1024.3mb 48f 41f
11:00 7 9 mph 1024.4mb 48f 41f